星链-2335 (STARLINK-2335 )

导读 | 豆包AI

STARLINK-2335是美国SpaceX星链星座中的一颗卫星,于2021年3月14日发射升空,属于星链网络的组网卫星,旨在为全球提供低延迟、高速率的宽带互联网服务,尤其覆盖偏远地区。作为低轨卫星,它运行在近地轨道,依靠大量同轨卫星组成网络,实现全球信号覆盖,是SpaceX星链计划大规模组网发射任务中的一员。

Basic Information
目录编号:
47878
目录名称:
STARLINK-2335
国际标识:
2021-021U
轨道中心:
EARTH
卫星名称:
星链-2335
卫星全名:
星链-2335 (STARLINK-2335 )
卫星状态:
已陨落 最后检测时间 2025-02-25
发射日期:
2021-03-14 UTC
国别 :
美国 (US)
星等 :
--
Orbit Information
数据来源 国际轨道数据
星历时间: 2025-02-25T02:24:44+0800
轨道信息已过期429天
半长轴: 6532.805km
偏心率: 0.0004535
轨道倾角: 53.026°
近地点辐角 231.214°
升交点赤经 127.108°
平近点角 230.798°
近地点: 151.707km
远地点: 157.633km
周期: 87.581分钟
每日圈数: 16.441947
Detailed Information
固有亮度:
5
最大亮度:
2.5
卫星平台:
Starlink V1.0
覆盖范围:
全球
运营商:
太空探索技术公司
运营商所在国:
美国
制造商(研发单位):
太空探索技术公司
制造商所在国:
美国
使用方式:
暂无
Satellite Introduction
星链(Starlink)计划是由太空探索技术公司(SpaceX)提出的一个巨型低轨卫星互联网星座项目,计划在2019年至2024年间在太空搭建由约1.2万颗卫星组成的“星链”网络,其中1584颗将部署在地球上空550千米处的近地轨道,并从2020年开始工作。该卫星仍在工作。